Regional Weather Roundup
Issued by NWS

Home | Current Version | Previous Version | Graphics & Text | Print | Product List | Glossary On
Versions: 1 2 3 4 5 6 7 8 9 10 11 12 13 14 15 16 17 18 19 20 21 22 23 24 25 26 27 28 29 30 31 32 33 34 35 36 37 38 39 40 41 42 43 44 45 46 47 48 49 50
558
ASUS43 KMKX 210111
RWRWI

WISCONSIN REGIONAL WEATHER ROUNDUP
NATIONAL WEATHER SERVICE MILWAUKEE/SULLIVAN WI
800 PM CDT THU JUL 20 2017

NOTE: "FAIR" INDICATES FEW OR NO CLOUDS BELOW 12,000 FEET WITH NO
SIGNIFICANT WEATHER AND/OR OBSTRUCTIONS TO VISIBILITY.

WIZ001-002-006>008-014>016-023>028-210200-
NORTHWEST WISCONSIN

CITY           SKY/WX    TMP DP  RH WIND       PRES   REMARKS
SUPERIOR ARPT  NOT AVBL
ASHLAND        CLEAR     78  67  68 SW5       29.94S HX  80
HAYWARD        CLEAR     80  62  54 W3        29.98F HX  81
SIREN          CLEAR     79  66  64 CALM      29.97F HX  81
CUMBERLAND     CLEAR     77  68  73 SW3       29.99F
RICE LAKE      CLEAR     80  67  63 W3        30.01R HX  82
CHETEK         CLEAR     79  68  69 MISG      29.99S HX  82
LADYSMITH      CLEAR     79  65  60 CALM      30.01S HX  81
EAU CLAIRE     CLEAR     80  68  66 CALM      29.98S HX  83
MENOMONIE      CLEAR     81  68  64 CALM      29.99S HX  84
NEW RICHMOND   CLEAR     81  65  58 CALM      29.99S HX  82
OSCEOLA        CLEAR     81  68  63 CALM      30.00F HX  84
$$

WIZ003>005-009-010-017-018-210200-
NORTH CENTRAL WISCONSIN

CITY           SKY/WX    TMP DP  RH WIND       PRES   REMARKS
MANITOWISH WTR CLEAR     74  64  70 CALM      29.99F
ARBOR VITAE    CLEAR     77  61  56 CALM      29.99S
WOODRUFF       CLEAR     77  61  56 CALM      29.99S
RHINELANDER    CLEAR     76  62  62 CALM      30.00S
EAGLE RIVER    CLEAR     74  55  50 NW3       29.99S
LAND O LAKES   CLEAR     74  55  51 NW3       30.01S
PHILLIPS       CLEAR     78  65  63 CALM      29.99S HX  80
TOMAHAWK         N/A     75  63  64 CALM      30.00S
MEDFORD        CLEAR     77  65  66 W6        30.00S
MERRILL        CLEAR     79  65  62 W3        30.00R HX  81
$$

WIZ029-030-035-036-043>047-210200-
CENTRAL WISCONSIN

CITY           SKY/WX    TMP DP  RH WIND       PRES   REMARKS
WAUSAU         CLEAR     79  65  62 W7        29.97S HX  81
MOSINEE        PTCLDY    79  66  65 W6        30.00S HX  81
MARSHFIELD     CLEAR     77  65  66 NW7       29.99S
STEVENS POINT  CLOUDY    79  65  61 W6        29.99S HX  81
WAUPACA        CLOUDY    83  64  52 W5        29.96S HX  85
WAUTOMA        CLOUDY    79  70  74 NW6       29.97R HX  82
WISC RAPIDS    CLOUDY    81  66  60 NW3       30.00R HX  83
CAMP DOUGLAS   CLOUDY    77  73  88 N6        29.98S
$$

WIZ011>013-019>022-031-037>040-048>050-210200-
NORTHEAST WISCONSIN

CITY           SKY/WX    TMP DP  RH WIND       PRES   REMARKS
ANTIGO         CLEAR     76  63  63 W7        30.00R
SHAWANO        CLEAR     83  62  50 CALM      29.95R HX  84
OCONTO         CLEAR     78  69  75 CALM      29.92S HX  80
STURGEON BAY   HAZE      75  70  83 S7        29.94R VSB 1/2
GREEN BAY      CLEAR     81  72  74 W3        29.94S HX  85
MANITOWOC      CLEAR     74  68  81 E3        29.95S
APPLETON       MOCLDY    81  63  54 W7        29.95R HX  82
CLINTONVILLE   PTCLDY    81  61  50 W3        29.95S HX  81
OSHKOSH        CLOUDY    79  70  74 NW3       29.95S HX  82
$$

WIZ032>034-041-042-053>061-210200-
SOUTHWEST WISCONSIN

CITY           SKY/WX    TMP DP  RH WIND       PRES   REMARKS
LA CROSSE      CLOUDY    83  71  67 N6        29.96S HX  87
SPARTA         MOCLDY    78  72  81 N5        29.99S HX  80
VIROQUA        CLOUDY    77  73  88 CALM      30.00S
BOSCOBEL       CLOUDY    79  74  84 CALM      29.97R HX  82
PRAIRIE DU CHI CLOUDY    81  71  70 N3        29.96S HX  85
PLATTEVILLE    PTCLDY    81  76  86 CALM      29.99S HX  87
$$

WIZ056-057-062-063-064-067-068-210200-
SOUTH CENTRAL WISCONSIN

CITY           SKY/WX    TMP DP  RH WIND       PRES   REMARKS
REEDSBURG      CLOUDY    78  70  75 NW5       29.97S HX  80
BARABOO/DELLS  CLOUDY    78  68  72 CALM      29.98S HX  80
LONE ROCK      CLOUDY    79  72  79 CALM      29.97R HX  82
MINERAL POINT  CLEAR     79  73  83 N3        30.00S HX  82
MADISON        CLOUDY    80  73  79 NW3       29.97R HX  84
MIDDLETON      CLOUDY    79  74  84 CALM      29.99R HX  83
WATERTOWN      CLOUDY    81  73  76 CALM      29.97R HX  86
MONROE         CLEAR     81  70  69 CALM      29.98S HX  84
JANESVILLE     PTCLDY    82  73  74 CALM      29.96S HX  88
$$

WIZ051-052-058>065-066-070>072-210200-
SOUTHEAST WISCONSIN

CITY           SKY/WX    TMP DP  RH WIND       PRES   REMARKS
MILWAUKEE      MOCLDY    78  71  79 S7        29.96S HX  80
WAUKESHA       PTCLDY    79  70  73 CALM      29.98R HX  81
MILWAUKEE/TIMM PTCLDY    81  66  61 SE5       29.97R HX  83
RACINE         CLEAR     75  69  81 S7        29.98S
KENOSHA        CLEAR     76  69  79 S6        29.98R
FOND DU LAC    CLOUDY    78  68  71 SW5       29.96S HX  80
SHEBOYGAN      CLOUDY    77  73  87 SW5       29.95R
WEST BEND      CLOUDY    79  70  73 CALM      29.97S HX  81
JUNEAU         CLOUDY    78  68  72 CALM      29.98R HX  80
$$

LSZ147-162-210200-
LAKE SUPERIOR

STATION/POSITION TIME  TEMP    WIND        PRES    WAVE
                       AIR SEA DIR/SP/G            HT/PER
                 (UTC) (F)     (DEG/KT/KT) (MB)    (FT/S)
W MID LAKE BUOY  0050   56 48  240/  6/  8 1013.1F   1
DEVILS ISLAND    0100   69     240/ 10/ 11 1012.9R
SAXON HARBOR     0040   78     210/  1/  2 1013.2F
$$

LMZ867-665-643>646-210200-
LAKE MICHIGAN

STATION/POSITION TIME  TEMP    WIND        PRES    WAVE
                       AIR SEA DIR/SP/G            HT/PER
                 (UTC) (F)     (DEG/KT/KT) (MB)    (FT/S)
CHAMBERS ISLAND  0030   79     180/  3/  6 1012.2S
S GREEN BAY BUOY 0100   77 74  200/  4/  6 1013.3
N MID LAKE BUOY  2350   69 66  170/ 10/ 10 1013.3    1/ 5
NORTHPORT PIER   0040   79     200/  1/  3 1012.2S
KEWAUNEE LAKESHO 0042   71     180/ 10/ 11 1013.3R
SHEBOYGAN LAKESH 0100   70     180/ 14/ 15 1013.6R
PORT WASHINGTON  0030   72     180/  4/  6 1015.2R
ATWATER BUOY     2339   71 70  170/ 10/ 12 1014.5R
MILWAUKEE LAKESH 0050   72     150/ 10/ 11   N/A
S MID LAKE BUOY  0050   73 72  150/  4/  4 1014.3S   1/ 4
KENOSHA   LAKESH 0100   74     190/  7/ 10 1014.6
$$

TC  - TEMPERATURE IN CELSIUS
VSB - VISIBILITY IN STATUTE MILES
WCI - WIND CHILL INDEX
HX  - HEAT INDEX





USA.gov is the U.S. government's official web portal to all federal, state and local government web resources and services.